This is the latest recevied weather packets stored in our database for station/object SQ3MKP-13. If no packets are shown the sender has not sent any weather packets the latest 10 day(s).
| Time | Temp. | Humidity | Pressure | Rain* | Wind** | Luminosity | Snow |
|---|---|---|---|---|---|---|---|
| 1777814167 | 27.22° C | 24% | 1003.3 hPa | - | - | 547 W/m² | - |
| 1777813866 | 27.22° C | 24% | 1003.3 hPa | - | - | 561 W/m² | - |
| 1777813565 | 27.22° C | 23% | 1003.5 hPa | - | - | 570 W/m² | - |
| 1777813264 | 27.78° C | 24% | 1003.4 hPa | - | - | 583 W/m² | - |
| 1777812963 | 27.78° C | 23% | 1003.6 hPa | - | - | 593 W/m² | - |
| 1777812662 | 27.22° C | 24% | 1003.5 hPa | - | - | 607 W/m² | - |
| 1777812361 | 27.22° C | 24% | 1003.6 hPa | - | - | 616 W/m² | - |
| 1777812061 | 27.22° C | 24% | 1003.7 hPa | - | - | 619 W/m² | - |
| 1777811760 | 27.22° C | 24% | 1003.8 hPa | - | - | 626 W/m² | - |
| 1777811459 | 27.22° C | 24% | 1003.7 hPa | - | - | 635 W/m² | - |
| 1777811158 | 27.78° C | 23% | 1003.8 hPa | - | - | 648 W/m² | - |
| 1777810857 | 27.22° C | 22% | 1003.8 hPa | - | - | 656 W/m² | - |
| 1777810556 | 27.22° C | 23% | 1003.9 hPa | - | - | 658 W/m² | - |
| 1777810255 | 26.67° C | 24% | 1003.9 hPa | - | - | 665 W/m² | - |
| 1777809955 | 27.22° C | 26% | 1004 hPa | - | - | 671 W/m² | - |
| 1777809654 | 27.22° C | 26% | 1004 hPa | - | - | 672 W/m² | - |
| 1777809353 | 27.22° C | 26% | 1004 hPa | - | - | 681 W/m² | - |
| 1777809052 | 27.22° C | 26% | 1004 hPa | - | - | 681 W/m² | - |
| 1777808751 | 27.22° C | 25% | 1004 hPa | - | - | 684 W/m² | - |
| 1777808450 | 27.22° C | 26% | 1004.1 hPa | - | - | 692 W/m² | - |
| 1777808149 | 27.22° C | 26% | 1004.1 hPa | - | - | 694 W/m² | - |
| 1777807848 | 26.67° C | 25% | 1004.3 hPa | - | - | 697 W/m² | - |
| 1777807547 | 26.67° C | 26% | 1004.3 hPa | - | - | 701 W/m² | - |
| 1777807246 | 26.67° C | 26% | 1004.3 hPa | - | - | 703 W/m² | - |
| 1777806946 | 26.67° C | 26% | 1004.4 hPa | - | - | 704 W/m² | - |
* Rain since midnight (hover to see other rain measurements)
** Current wind speed in m/s (hover to see current wind gust speed)